Tracking 34408 objects as of 13-Jun-2026
HD Live streaming from Space Station
objects crossing your sky now

STARLINK-5427

Track STARLINK-5427 now!
10-day predictions
STARLINK-5427 is classified as:


NORAD ID: 54853
Int'l Code: 2022-177AK
Perigee: 489.4 km
Apogee: 491.0 km
Inclination: 43.0 °
Period: 94.3 minutes
Semi major axis: 6861 km
RCS: Unknown
Launch date: December 28, 2022
Source: United States (US)
Launch site: AIR FORCE EASTERN TEST RANGE (AFETR)
Your satellite tracking list
Your tracking list is empty




NASA's NSSDC Master Catalog

Two Line Element Set (TLE):
1 54853U 22177AK  26163.83168166 -.00000799  00000-0 -19507-4 0  9994
2 54853  43.0029 304.0795 0001144 271.8920  88.1801 15.27565393191645
Source of the keplerian elements: AFSPC